Satellite-Ground Cal/Val Region Overpasses Predictions

Prediction of Satellite NPP Overpassing Cal/Val Region: PacNW

Region Location: (Latitude: 10.00, Longitude: 139.50) to (Latitude: 22.70, Longitude: 165.60).

Table of predicted overpasses for the next 14.0 days since TLE Epoch: 7/12/2013
Interval Starting Time Starting Location Ending Time Ending Location
1 07/13/2013 03:35:55 ( 10.04, 145.65) 07/13/2013 03:39:30 ( 22.66, 142.64)
2 07/13/2013 14:29:29 ( 11.46, 165.60) 07/13/2013 14:29:53 ( 10.05, 165.27)
3 07/13/2013 16:07:48 ( 22.66, 142.90) 07/13/2013 16:11:23 ( 10.04, 139.90)
4 07/14/2013 03:16:53 ( 10.03, 150.42) 07/14/2013 03:20:28 ( 22.65, 147.41)
5 07/14/2013 15:48:45 ( 22.67, 147.67) 07/14/2013 15:52:20 ( 10.05, 144.66)
6 07/15/2013 02:57:50 ( 10.03, 155.18) 07/15/2013 03:01:25 ( 22.65, 152.17)
7 07/15/2013 15:29:43 ( 22.68, 152.43) 07/15/2013 15:33:19 ( 10.00, 149.41)
8 07/16/2013 02:38:48 ( 10.02, 159.94) 07/16/2013 02:42:24 ( 22.70, 156.92)
9 07/16/2013 15:10:40 ( 22.69, 157.20) 07/16/2013 15:14:16 ( 10.01, 154.17)
10 07/17/2013 02:19:45 ( 10.01, 164.71) 07/17/2013 02:23:21 ( 22.69, 161.68)
11 07/17/2013 14:51:38 ( 22.69, 161.96) 07/17/2013 14:55:14 ( 10.02, 158.94)
12 07/18/2013 03:42:13 ( 10.01, 144.10) 07/18/2013 03:45:49 ( 22.69, 141.07)
13 07/18/2013 14:33:54 ( 18.13, 165.60) 07/18/2013 14:36:12 ( 10.02, 163.70)
14 07/18/2013 16:14:05 ( 22.69, 141.35) 07/18/2013 16:16:14 ( 15.12, 139.51)
15 07/19/2013 03:23:10 ( 10.01, 148.86) 07/19/2013 03:26:46 ( 22.69, 145.84)
16 07/19/2013 15:55:03 ( 22.70, 146.11) 07/19/2013 15:58:39 ( 10.02, 143.09)
17 07/20/2013 03:04:08 ( 10.00, 153.62) 07/20/2013 03:07:44 ( 22.68, 150.60)
18 07/20/2013 15:36:02 ( 22.64, 150.86) 07/20/2013 15:39:37 ( 10.03, 147.85)
19 07/21/2013 02:45:06 ( 10.06, 158.37) 07/21/2013 02:48:41 ( 22.68, 155.36)
20 07/21/2013 15:16:59 ( 22.65, 155.62) 07/21/2013 15:20:34 ( 10.03, 152.62)
21 07/22/2013 02:26:04 ( 10.05, 163.14) 07/22/2013 02:29:39 ( 22.68, 160.13)
22 07/22/2013 14:57:57 ( 22.65, 160.39) 07/22/2013 15:01:32 ( 10.04, 157.38)
23
